#timestamp,LO_Frequency,Hit,StdDev 
1671127215.7,286046999.0,N
1671127235.6,286047002.7,N
1671127255.4,286047001.0,N
1671127275.2,286046997.7,N
1671127295.1,286046996.3,N
1671127296.0,286046996.3,N
1671127315.8,286046997.3,N
1671127335.7,286046996.9,N
1671127355.5,286046996.5,N
1671127375.3,286046993.3,N
1671127395.2,286046993.4,N
1671127415.0,286046993.4,N
1671127415.9,286046993.4,N
1671127435.7,286046995.0,N
1671127455.6,286046997.2,N
1671127475.4,286046995.5,N
1671127495.3,286046991.7,Y
1671127515.1,286046998.2,P
1671127516.0,286046998.2,N
1671127535.8,286047000.0,N
1671127555.7,286047005.4,Y
1671127575.5,286047007.4,P
1671127595.4,286047004.5,N
1671127615.2,286047011.5,N
1671127635.0,286047020.2,Y
1671127635.9,286047020.2,P
1671127655.8,286047009.4,N
1671127675.6,286047009.1,N
1671127695.4,286047006.0,N
1671127715.3,286047005.8,N
1671127735.1,286047004.3,N
1671127755.9,286047004.7,N
1671127775.7,286047003.3,N
1671127795.5,286047004.0,N
1671127815.4,286047001.4,N
1671127835.2,286047002.2,N
1671127855.0,286047003.6,N
1671127855.9,286047003.6,N
1671127875.8,286047003.2,N
1671127895.6,286047005.4,N
1671127915.4,286047002.2,N
1671127935.3,286047001.3,N
1671127955.1,286047002.7,N
1671127975.9,286046998.5,N
1671127995.7,286047000.7,N
1671128015.5,286046999.3,N
1671128035.4,286046999.6,N
1671128055.2,286046999.1,N
1671128075.0,286047000.2,N
1671128076.0,286047000.2,N
1671128095.8,286047000.1,N
1671128145.7,286047003.9,E
1671128155.6,286047004.8,N
1671128175.4,286046997.0,P
1671128195.2,286046997.1,N
1671128215.1,286047001.2,N
1671128216.0,286047001.2,N
1671128235.8,286047000.1,N
1671128255.7,286047000.7,N
1671128275.5,286046998.8,N
1671128295.3,286046998.2,N
1671128315.2,286047002.1,N
1671128335.0,286047004.4,N
1671128335.9,286047004.4,N
1671128355.7,286047003.0,N
1671128375.6,286047005.0,N
1671128395.4,286047008.8,Y
1671128415.3,286047003.1,P
1671128435.1,286047004.4,P
1671128436.0,286047004.4,P
1671128455.8,286047004.1,Y
1671128475.7,286047004.0,P
1671128495.5,286047001.1,P
1671128515.4,286046999.9,N
1671128535.2,286046994.9,Y
1671128555.0,286046995.3,P
1671128555.9,286046995.3,N
1671128575.8,286046994.2,N
1671128595.6,286046991.7,N
1671128615.4,286046993.7,N
1671128635.3,286046997.0,N
1671128655.1,286046999.3,N
1671128675.9,286047000.8,N
1671128695.7,286047000.6,N
1671128715.5,286046997.2,N
1671128735.4,286046997.6,N
1671128755.2,286046996.5,N
1671128775.0,286046995.0,N
1671128775.9,286046995.0,N
1671128795.8,286047000.6,N
1671128815.6,286046997.2,N
1671128835.4,286046995.3,N
1671128855.3,286046997.5,N
1671128875.1,286046994.3,N
1671128895.9,286046993.4,N
1671128915.7,286047001.5,N
1671128935.5,286047005.7,N
1671128955.4,286047002.3,N
1671128975.2,286047002.1,N
1671128995.0,286047000.6,N
1671128995.9,286047000.6,N
1671129015.8,286046998.3,N
1671129035.6,286047004.4,N
1671129055.5,286047003.8,N
1671129075.3,286047004.1,N
1671129095.1,286047004.2,N
1671129115.9,286047003.6,N
1671129135.7,286047004.8,N
1671129155.5,286047004.0,N
1671129175.4,286047002.3,N
1671129195.3,286047004.0,N
1671129215.1,286047003.9,N
1671129216.0,286047003.9,N
1671129235.8,286047004.3,N
1671129255.7,286047006.1,N
1671129275.5,286047007.1,N
1671129295.3,286047005.9,N
1671129315.2,286047007.2,N
1671129335.0,286047007.4,N
1671129335.9,286047007.4,N
1671129355.8,286047011.2,N
1671129375.6,286047012.1,Y
1671129395.5,286047004.9,P
1671129415.3,286047007.0,P
1671129435.1,286047005.7,P
1671129455.9,286047005.4,Y
1671129475.7,286047002.0,P
1671129495.5,286047002.6,N
1671129515.4,286047003.6,N
1671129535.2,286047004.1,Y
1671129555.1,286047002.5,P
1671129556.0,286047002.5,P
1671129575.8,286047001.9,P
1671129595.6,286046998.4,Y
1671129615.5,286046995.8,P
1671129635.3,286046996.7,N
1671129655.2,286046996.1,N
1671129675.9,286046991.7,Y
1671129695.7,286046993.8,P
1671129715.6,286046993.3,P
1671129735.4,286046994.0,P
1671129755.2,286046992.0,Y
1671129775.1,286046996.7,P
1671129776.0,286046996.7,P
1671129795.8,286047000.7,N
1671129815.7,286047002.7,N
1671129835.5,286047000.2,N
1671129855.3,286047002.6,N
1671129875.2,286046999.9,N
1671129895.0,286047002.4,N
1671129895.9,286047002.4,N
1671129915.7,286047003.3,N
1671129935.6,286047011.9,Y
1671129955.4,286047004.8,P
1671129975.3,286047001.5,N
1671129995.1,286047000.5,N
1671129996.0,286047000.5,N
1671130015.8,286047002.6,N
1671130035.7,286046999.4,N
1671130055.5,286046996.9,N
1671130075.3,286047000.8,N
1671130095.2,286047004.3,N
1671130115.0,286047002.1,N
1671130115.9,286047002.1,N
1671130135.8,286046998.1,N
1671130155.6,286047006.8,Y
1671130175.4,286047005.0,P
1671130195.3,286047002.9,N
1671130215.1,286047002.2,N
1671130235.9,286047008.5,Y
1671130255.7,286047003.3,P
1671130275.5,286047000.0,N
1671130295.4,286047001.4,N
1671130315.2,286047000.4,N
1671130335.0,286047000.5,N
1671130335.9,286047000.5,N
1671130355.8,286047002.1,N
1671130375.6,286047002.3,N
1671130395.5,286047003.8,Y
1671130415.3,286047000.2,P
1671130435.1,286047000.7,N
1671130455.9,286046996.9,P
1671130475.7,286046997.5,N
1671130495.5,286046996.6,N
1671130515.4,286046998.5,N
1671130535.2,286046998.0,N
1671130555.1,286046998.7,N
1671130556.0,286046998.7,N
1671130575.8,286046995.4,Y
1671130595.6,286047002.5,P
1671130615.5,286046998.8,N
1671130635.3,286046999.0,N
1671130655.1,286046999.4,N
1671130675.9,286046997.9,N
1671130695.7,286046996.4,N
1671130715.6,286046999.4,N
1671130735.4,286046993.8,Y
1671130755.2,286046995.0,P
1671130775.1,286047001.3,N
1671130776.0,286047001.3,N
1671130795.8,286046999.9,N
